| time (UTC) | temp F | wind direction | speed MPH | gust MPH | rain 1hr in | rain 24hr in | rain mn in | humidity % | barometer mb |
| 20260510053951 | 49 | 10 | 4.0 | 6.0 | 0.00 | 0.00 | 0.00 | 93 | 1014.4 |
| 20260510052952 | 49 | 7 | 4.0 | 5.0 | 0.00 | 0.00 | 0.00 | 94 | 1014.4 |
| 20260510050954 | 48 | 10 | 2.0 | 4.0 | 0.00 | 0.00 | 0.00 | 94 | 1014.4 |
| 20260510045952 | 48 | 7 | 2.0 | 3.0 | 0.00 | 0.00 | 0.00 | 94 | 1014.4 |
| 20260510044952 | 48 | 19 | 2.0 | 4.0 | 0.00 | 0.00 | 0.00 | 94 | 1014.4 |
| 20260510043952 | 47 | 11 | 2.0 | 5.0 | 0.00 | 0.00 | 0.00 | 94 | 1014.4 |
| 20260510042952 | 47 | 14 | 3.0 | 4.0 | 0.00 | 0.00 | 0.00 | 94 | 1014.4 |
| 20260510041952 | 47 | 18 | 2.0 | 4.0 | 0.00 | 0.00 | 0.00 | 94 | 1014.4 |
| 20260510040953 | 47 | 9 | 1.0 | 4.0 | 0.00 | 0.00 | 0.00 | 94 | 1014.4 |
| 20260510035954 | 47 | 17 | 2.0 | 4.0 | 0.00 | 0.00 | 0.00 | 94 | 1014.4 |
| 20260510034952 | 47 | 13 | 3.0 | 4.0 | 0.00 | 0.00 | 0.00 | 93 | 1014.4 |
| 20260510033952 | 48 | 14 | 2.0 | 4.0 | 0.00 | 0.00 | 0.00 | 93 | 1014.4 |
| 20260510032952 | 48 | 17 | 2.0 | 4.0 | 0.00 | 0.00 | 0.00 | 94 | 1014.4 |
| 20260510030953 | 48 | 21 | 2.0 | 4.0 | 0.00 | 0.00 | 0.00 | 94 | 1014.4 |
| 20260510025953 | 48 | 14 | 2.0 | 4.0 | 0.00 | 0.00 | 0.00 | 93 | 1014.4 |
| 20260510024952 | 48 | 11 | 2.0 | 4.0 | 0.00 | 0.00 | 0.00 | 93 | 1014.4 |
| 20260510023952 | 48 | 8 | 3.0 | 5.0 | 0.00 | 0.00 | 0.00 | 93 | 1014.4 |
| 20260510022952 | 48 | 16 | 2.0 | 4.0 | 0.00 | 0.00 | 0.00 | 93 | 1014.4 |
| 20260510021952 | 48 | 342 | 3.0 | 6.0 | 0.00 | 0.00 | 0.00 | 93 | 1014.4 |
| 20260510020953 | 47 | 309 | 4.0 | 6.0 | 0.00 | 0.00 | 0.00 | 93 | 1014.5 |
| 20260510015953 | 47 | 296 | 4.0 | 6.0 | 0.00 | 0.00 | 0.00 | 92 | 1014.6 |
| 20260510014953 | 47 | 292 | 4.0 | 6.0 | 0.00 | 0.00 | 0.00 | 92 | 1014.6 |
| 20260510013953 | 48 | 340 | 1.0 | 3.0 | 0.00 | 0.00 | 0.00 | 92 | 1014.9 |
| 20260510012953 | 48 | 356 | 0.0 | 2.0 | 0.00 | 0.00 | 0.00 | 91 | 1014.8 |
| 20260510011952 | 48 | 2 | 1.0 | 3.0 | 0.00 | 0.00 | 0.00 | 91 | 1014.8 |
| 20260510010954 | 48 | 295 | 3.0 | 5.0 | 0.00 | 0.00 | 0.00 | 91 | 1014.7 |
| 20260510005953 | 49 | 293 | 4.0 | 5.0 | 0.00 | 0.00 | 0.00 | 89 | 1014.9 |
| 20260510004952 | 49 | 294 | 2.0 | 4.0 | 0.00 | 0.00 | 0.00 | 89 | 1014.9 |
| 20260510003952 | 50 | 291 | 2.0 | 4.0 | 0.00 | 0.00 | 0.00 | 88 | 1014.9 |
| 20260510002954 | 50 | 287 | 3.0 | 5.0 | 0.00 | 0.00 | 0.00 | 87 | 1014.9 |
| 20260510001953 | 50 | 286 | 4.0 | 5.0 | 0.00 | 0.00 | 0.00 | 87 | 1014.9 |
| 20260510000953 | 51 | 342 | 2.0 | 4.0 | 0.00 | 0.00 | 0.00 | 87 | 1015.0 |
| 20260509235953 | 51 | 9 | 1.0 | 4.0 | 0.00 | 0.00 | 0.00 | 87 | 1015.0 |
| 20260509234953 | 51 | 8 | 3.0 | 4.0 | 0.00 | 0.00 | 0.00 | 86 | 1015.0 |
| 20260509233953 | 51 | 10 | 3.0 | 5.0 | 0.00 | 0.00 | 0.00 | 86 | 1015.0 |
| 20260509232954 | 51 | 7 | 4.0 | 6.0 | 0.00 | 0.00 | 0.00 | 86 | 1015.0 |
| 20260509231953 | 51 | 4 | 4.0 | 6.0 | 0.00 | 0.00 | 0.00 | 86 | 1015.0 |
| 20260509230954 | 51 | 6 | 4.0 | 6.0 | 0.00 | 0.00 | 0.00 | 85 | 1015.3 |
| 20260509225953 | 51 | 2 | 3.0 | 5.0 | 0.00 | 0.00 | 0.00 | 84 | 1015.3 |
| 20260509223953 | 52 | 335 | 4.0 | 5.0 | 0.00 | 0.00 | 0.00 | 82 | 1015.4 |
| 20260509222953 | 53 | 18 | 2.0 | 4.0 | 0.00 | 0.00 | 0.00 | 82 | 1015.4 |
| 20260509220953 | 53 | 3 | 4.0 | 6.0 | 0.00 | 0.00 | 0.00 | 80 | 1015.2 |
| 20260509215957 | 54 | 4 | 4.0 | 6.0 | 0.00 | 0.00 | 0.00 | 79 | 1015.2 |
| 20260509213953 | 55 | 11 | 3.0 | 5.0 | 0.00 | 0.00 | 0.00 | 76 | 1015.3 |
| 20260509211953 | 56 | 20 | 3.0 | 7.0 | 0.00 | 0.00 | 0.00 | 73 | 1015.3 |
| 20260509210953 | 57 | 12 | 4.0 | 7.0 | 0.00 | 0.00 | 0.00 | 73 | 1015.4 |
| 20260509205954 | 57 | 8 | 4.0 | 7.0 | 0.00 | 0.00 | 0.00 | 72 | 1015.5 |
| 20260509204953 | 57 | 17 | 4.0 | 6.0 | 0.00 | 0.00 | 0.00 | 71 | 1015.5 |
| 20260509203953 | 58 | 19 | 3.0 | 6.0 | 0.00 | 0.00 | 0.00 | 70 | 1015.5 |
| 20260509202953 | 58 | 19 | 3.0 | 6.0 | 0.00 | 0.00 | 0.00 | 68 | 1015.4 |
| 20260509201953 | 59 | 23 | 3.0 | 6.0 | 0.00 | 0.00 | 0.00 | 67 | 1015.4 |
| 20260509200954 | 59 | 16 | 4.0 | 8.0 | 0.00 | 0.00 | 0.00 | 66 | 1015.3 |
| 20260509195953 | 59 | 16 | 5.0 | 8.0 | 0.00 | 0.00 | 0.00 | 66 | 1015.5 |
| 20260509194953 | 59 | 12 | 4.0 | 7.0 | 0.00 | 0.00 | 0.00 | 67 | 1015.5 |
| 20260509192953 | 60 | 9 | 3.0 | 5.0 | 0.00 | 0.00 | 0.00 | 66 | 1015.1 |
| 20260509191953 | 62 | 12 | 3.0 | 5.0 | 0.00 | 0.00 | 0.00 | 62 | 1015.1 |
| 20260509185954 | 63 | 15 | 3.0 | 4.0 | 0.00 | 0.00 | 0.00 | 60 | 1015.0 |
| 20260509184954 | 64 | 10 | 3.0 | 4.0 | 0.00 | 0.00 | 0.00 | 61 | 1015.0 |
| 20260509183953 | 64 | 17 | 3.0 | 6.0 | 0.00 | 0.00 | 0.00 | 58 | 1015.0 |
| 20260509182953 | 65 | 22 | 3.0 | 6.0 | 0.00 | 0.00 | 0.00 | 57 | 1014.9 |
| 20260509181953 | 66 | 19 | 3.0 | 5.0 | 0.00 | 0.00 | 0.00 | 57 | 1014.9 |
| 20260509180954 | 66 | 18 | 4.0 | 7.0 | 0.00 | 0.00 | 0.00 | 55 | 1014.7 |
| 20260509175954 | 66 | 2 | 5.0 | 6.0 | 0.00 | 0.00 | 0.00 | 55 | 1014.6 |
| 20260509174954 | 67 | 24 | 5.0 | 8.0 | 0.00 | 0.00 | 0.00 | 54 | 1014.6 |
| 20260509173954 | 67 | 45 | 4.0 | 8.0 | 0.00 | 0.00 | 0.00 | 54 | 1014.8 |
| 20260509170954 | 67 | 27 | 2.0 | 4.0 | 0.00 | 0.00 | 0.00 | 56 | 1014.6 |
| 20260509165954 | 67 | 47 | 3.0 | 7.0 | 0.00 | 0.00 | 0.00 | 54 | 1014.8 |
| 20260509164954 | 67 | 43 | 2.0 | 4.0 | 0.00 | 0.00 | 0.00 | 54 | 1014.8 |
| 20260509163953 | 67 | 53 | 3.0 | 7.0 | 0.00 | 0.00 | 0.00 | 54 | 1014.9 |
| 20260509162954 | 67 | 61 | 4.0 | 10.0 | 0.00 | 0.00 | 0.00 | 54 | 1014.7 |
| 20260509161954 | 67 | 316 | 5.0 | 9.0 | 0.00 | 0.00 | 0.00 | 53 | 1014.7 |
| 20260509160954 | 68 | 283 | 5.0 | 8.0 | 0.00 | 0.00 | 0.00 | 52 | 1014.9 |
| 20260509154954 | 68 | 330 | 7.0 | 10.0 | 0.00 | 0.00 | 0.00 | 54 | 1015.0 |
| 20260509152954 | 69 | 326 | 2.0 | 4.0 | 0.00 | 0.00 | 0.00 | 51 | 1015.0 |
| 20260509151954 | 69 | 329 | 4.0 | 7.0 | 0.00 | 0.00 | 0.00 | 53 | 1015.0 |
| 20260509150954 | 69 | 272 | 3.0 | 6.0 | 0.00 | 0.00 | 0.00 | 52 | 1015.1 |
| 20260509145954 | 68 | 295 | 4.0 | 7.0 | 0.00 | 0.00 | 0.00 | 51 | 1015.2 |
| 20260509144954 | 68 | 314 | 5.0 | 7.0 | 0.00 | 0.00 | 0.00 | 53 | 1015.2 |
| 20260509143954 | 67 | 311 | 4.0 | 6.0 | 0.00 | 0.00 | 0.00 | 54 | 1015.4 |
| 20260509142955 | 67 | 3 | 5.0 | 9.0 | 0.00 | 0.00 | 0.00 | 53 | 1015.5 |
| 20260509141954 | 68 | 293 | 6.0 | 9.0 | 0.00 | 0.00 | 0.00 | 53 | 1015.5 |
| 20260509140954 | 67 | 325 | 5.0 | 8.0 | 0.00 | 0.00 | 0.00 | 56 | 1015.5 |
| 20260509135954 | 68 | 258 | 4.0 | 7.0 | 0.00 | 0.00 | 0.00 | 53 | 1015.7 |
| 20260509134954 | 69 | 357 | 4.0 | 7.0 | 0.00 | 0.00 | 0.00 | 53 | 1015.7 |
| 20260509132955 | 68 | 92 | 5.0 | 9.0 | 0.00 | 0.00 | 0.00 | 56 | 1016.2 |
| 20260509131955 | 67 | 41 | 6.0 | 10.0 | 0.00 | 0.00 | 0.00 | 56 | 1016.2 |
| 20260509130954 | 66 | 42 | 5.0 | 13.0 | 0.00 | 0.00 | 0.00 | 56 | 1016.2 |
| 20260509124955 | 65 | 51 | 3.0 | 6.0 | 0.00 | 0.00 | 0.00 | 56 | 1016.5 |
| 20260509123955 | 66 | 65 | 6.0 | 9.0 | 0.00 | 0.00 | 0.00 | 55 | 1016.6 |
| 20260509122954 | 67 | 19 | 5.0 | 10.0 | 0.00 | 0.00 | 0.00 | 54 | 1016.7 |
| 20260509121955 | 67 | 14 | 4.0 | 10.0 | 0.00 | 0.00 | 0.00 | 55 | 1016.7 |
| 20260509120955 | 66 | 86 | 3.0 | 10.0 | 0.00 | 0.00 | 0.00 | 56 | 1016.9 |
| 20260509115954 | 67 | 32 | 5.0 | 10.0 | 0.00 | 0.00 | 0.00 | 56 | 1017.1 |
| 20260509114956 | 66 | 297 | 2.0 | 6.0 | 0.00 | 0.00 | 0.00 | 59 | 1017.1 |
| 20260509113955 | 65 | 298 | 4.0 | 7.0 | 0.00 | 0.00 | 0.00 | 57 | 1017.1 |
| 20260509112955 | 65 | 62 | 2.0 | 8.0 | 0.00 | 0.00 | 0.00 | 57 | 1017.3 |
| 20260509111956 | 66 | 56 | 5.0 | 10.0 | 0.00 | 0.00 | 0.00 | 58 | 1017.3 |
| 20260509110954 | 66 | 342 | 2.0 | 9.0 | 0.00 | 0.00 | 0.00 | 61 | 1017.4 |
| 20260509104954 | 65 | 5 | 5.0 | 10.0 | 0.00 | 0.00 | 0.00 | 57 | 1017.6 |
| 20260509102955 | 64 | 55 | 1.0 | 5.0 | 0.00 | 0.00 | 0.00 | 61 | 1017.7 |
| 20260509101955 | 65 | 42 | 6.0 | 11.0 | 0.00 | 0.00 | 0.00 | 60 | 1017.7 |
| 20260509095955 | 64 | 75 | 3.0 | 9.0 | 0.00 | 0.00 | 0.00 | 62 | 1018.0 |
| 20260509094955 | 64 | 57 | 2.0 | 8.0 | 0.00 | 0.00 | 0.00 | 64 | 1018.0 |
| 20260509093956 | 63 | 66 | 4.0 | 10.0 | 0.00 | 0.00 | 0.00 | 64 | 1018.1 |
| 20260509090955 | 62 | 69 | 4.0 | 8.0 | 0.00 | 0.00 | 0.00 | 71 | 1018.1 |
| 20260509085955 | 62 | 76 | 5.0 | 9.0 | 0.00 | 0.00 | 0.00 | 72 | 1018.1 |
| 20260509084955 | 61 | 55 | 5.0 | 9.0 | 0.00 | 0.00 | 0.00 | 75 | 1018.1 |
| 20260509083955 | 60 | 47 | 5.0 | 9.0 | 0.00 | 0.00 | 0.00 | 76 | 1018.1 |
| 20260509082955 | 60 | 43 | 6.0 | 9.0 | 0.00 | 0.00 | 0.00 | 77 | 1018.1 |
| 20260509081955 | 59 | 51 | 6.0 | 9.0 | 0.00 | 0.00 | 0.00 | 79 | 1018.1 |
| 20260509080956 | 58 | 48 | 7.0 | 10.0 | 0.00 | 0.00 | 0.00 | 80 | 1018.2 |
| 20260509075955 | 58 | 51 | 7.0 | 11.0 | 0.00 | 0.00 | 0.00 | 80 | 1018.1 |
| 20260509074955 | 57 | 49 | 7.0 | 10.0 | 0.00 | 0.00 | 0.00 | 81 | 1018.1 |
| 20260509073955 | 57 | 59 | 6.0 | 9.0 | 0.00 | 0.00 | 0.00 | 83 | 1018.1 |
| 20260509072956 | 56 | 71 | 6.0 | 9.0 | 0.00 | 0.00 | 0.00 | 84 | 1018.2 |
| 20260509070957 | 55 | 48 | 4.0 | 7.0 | 0.00 | 0.00 | 0.00 | 88 | 1018.3 |
| 20260509062955 | 51 | 53 | 4.0 | 7.0 | 0.00 | 0.00 | 0.00 | 94 | 1018.2 |
| 20260509061956 | 51 | 54 | 4.0 | 7.0 | 0.00 | 0.00 | 0.00 | 94 | 1018.2 |
| 20260509060955 | 50 | 51 | 4.0 | 7.0 | 0.00 | 0.00 | 0.00 | 95 | 1018.2 |
| 20260509054956 | 48 | 56 | 2.0 | 4.0 | 0.00 | 0.00 | 0.00 | 97 | 1018.1 |